Date String (YYYY-MM-DD hh:mm:ss) UTC,Instrument flags,absolute air pressure of the measurement (hPa),sample flow rate (lpm),inlet stack bypass flow (lpm),air temperature of the measurement (°C),ambient temperature measured by the external sensor (°C),aerosol sample conditioner tube jacket temperature (°C),OPC LED temperature (°C),internal box temperature (°C),relative humidity of the measurement (%),span deviation,mass concentration of particles derived from Lorenz-Mie calculation of OPC scattering (μg/m³),mass concentration of particles derived from Lorenz-Mie calculation of OPC scattering (μg/m³),mass concentration of particles derived from Lorenz-Mie calculation of OPC scattering (μg/m³)
DateTimeUTC,F1_M11,P_M11,Q1_M11,Q2_M11,T1_M11,T2_M11,T3_M11,T4_M11,T5_M11,U1_M11,ZSPAN_M11,X0_M11,X2_M11,X1_M11
2023-07-23 17:00:00,SystemResetWarning,0833.8,5.01,000.00,029.2,026.9,000.0,037.4,030.5,15.5,0002.2,0015.46,0008.13,0007.57
2023-07-23 17:01:00,SystemResetWarning,0833.8,5.00,000.00,029.2,027.2,000.0,037.4,030.6,15.1,0001.7,0015.46,0008.03,0007.47
2023-07-23 17:02:00,SystemResetWarning,0833.8,4.98,000.00,029.2,026.9,000.0,037.4,030.6,16.0,0001.4,0015.43,0007.89,0007.35
2023-07-23 17:03:00,SystemResetWarning,0833.8,5.00,000.00,029.2,025.6,000.0,037.3,030.4,17.5,0001.9,0015.24,0007.73,0007.19
2023-07-23 17:04:00,SystemResetWarning,0833.8,5.01,000.00,029.1,025.3,000.0,037.2,030.3,23.0,0000.0,0014.73,0007.60,0007.05
2023-07-23 17:05:00,SystemResetWarning,0833.8,5.00,000.00,029.1,025.6,000.0,037.2,030.3,20.9,0000.0,0014.38,0007.42,0006.91
2023-07-23 17:06:00,SystemResetWarning,0833.8,4.99,000.00,029.0,026.0,000.0,037.3,030.2,26.6,0000.0,0013.70,0007.33,0006.80
2023-07-23 17:07:00,SystemResetWarning,0833.8,5.00,000.00,029.0,026.4,000.0,037.3,030.3,19.2,0000.0,0012.81,0007.23,0006.69
2023-07-23 17:08:00,SystemResetWarning,0833.7,5.01,000.00,029.0,026.7,000.0,037.3,030.4,15.8,0000.0,0012.18,0007.10,0006.59
2023-07-23 17:09:00,SystemResetWarning,0833.7,5.00,000.00,029.1,027.1,000.0,037.4,030.5,25.3,0000.0,0011.41,0006.98,0006.49
2023-07-23 17:10:00,SystemResetWarning,0833.8,4.99,000.00,029.1,026.8,000.0,037.3,030.5,32.7,0000.0,0011.08,0006.73,0006.30
2023-07-23 17:11:00,SystemResetWarning,0833.8,5.00,000.00,029.1,025.6,000.0,037.2,030.3,32.7,0000.0,0010.61,0006.49,0006.09
2023-07-23 17:12:00,SystemResetWarning,0833.8,5.00,000.00,029.0,025.2,000.0,037.1,030.2,31.0,0000.0,0011.16,0006.26,0005.87
2023-07-23 17:13:00,SystemResetWarning,0833.8,5.01,000.00,029.0,025.5,000.0,037.1,030.2,30.8,0000.0,0010.66,0006.06,0005.67
2023-07-23 17:14:00,SystemResetWarning,0833.8,5.01,000.00,028.9,025.9,000.0,037.2,030.2,26.3,0000.0,0010.28,0005.90,0005.50
2023-07-23 17:15:00,SystemResetWarning,0833.7,5.00,000.00,028.9,026.3,000.0,037.2,030.3,24.1,0000.0,0010.10,0005.71,0005.32
2023-07-23 17:16:00,SystemResetWarning,0833.7,5.00,000.00,028.9,026.7,000.0,037.2,030.4,33.7,0000.0,0009.91,0005.51,0005.11
2023-07-23 17:17:00,SystemResetWarning,0833.7,4.99,000.00,029.0,027.0,000.0,037.3,030.4,34.4,0000.0,0009.59,0005.28,0004.92
2023-07-23 17:18:00,SystemResetWarning,0833.7,5.01,000.00,029.1,026.8,000.0,037.2,030.5,35.3,0000.0,0009.40,0005.13,0004.78
2023-07-23 17:19:00,SystemResetWarning,0833.6,5.00,000.00,029.3,025.5,000.0,037.1,030.4,35.3,0000.0,0009.22,0004.98,0004.64
2023-07-23 17:20:00,SystemResetWarning,0833.7,5.01,000.00,029.5,025.1,000.0,037.0,030.4,34.7,0000.0,0009.68,0004.86,0004.55
2023-07-23 17:21:00,SystemResetWarning,0833.7,4.99,000.00,029.7,025.4,000.0,037.1,030.4,33.6,0000.0,0010.11,0004.82,0004.50
2023-07-23 17:22:00,SystemResetWarning,0833.7,5.00,000.00,029.8,025.8,000.0,037.2,030.3,34.3,0000.0,0009.99,0004.80,0004.46
2023-07-23 17:23:00,SystemResetWarning,0833.7,5.01,000.00,029.9,026.2,000.0,037.3,030.4,35.6,0000.0,0008.85,0004.85,0004.50
2023-07-23 17:24:00,SystemResetWarning,0833.7,5.01,000.00,030.1,026.6,000.0,037.4,030.6,34.0,0000.0,0008.95,0005.06,0004.69
2023-07-23 17:25:00,SystemResetWarning,0833.6,4.98,000.00,030.3,027.0,000.0,037.5,030.8,28.0,0000.0,0009.13,0005.30,0004.92
2023-07-23 17:26:00,SystemResetWarning,0833.7,5.02,000.00,030.5,027.2,000.0,037.6,030.9,27.5,0000.0,0009.36,0005.54,0005.17
2023-07-23 17:27:00,SystemResetWarning,0833.7,4.97,000.00,030.6,026.2,000.0,037.6,030.8,27.4,0000.0,0009.58,0005.75,0005.39
2023-07-23 17:28:00,SystemResetWarning,0833.7,5.01,000.00,030.6,025.1,000.0,037.6,030.6,23.2,0000.0,0009.81,0005.96,0005.58
2023-07-23 17:29:00,SystemResetWarning,0833.7,5.01,000.00,030.5,025.3,000.0,037.6,030.6,20.6,0000.0,0009.91,0006.03,0005.65
2023-07-23 17:30:00,SystemResetWarning,0833.7,5.00,000.00,030.5,025.6,000.0,037.8,030.4,22.0,0000.0,0010.62,0006.17,0005.77
2023-07-23 17:31:00,SystemResetWarning,0833.7,4.99,000.00,030.4,026.0,000.0,037.9,030.5,23.1,0000.0,0010.49,0006.34,0005.91
2023-07-23 17:32:00,SystemResetWarning,0833.7,5.00,000.00,030.4,026.5,000.0,038.0,030.6,24.8,0000.0,0009.97,0006.54,0006.09
2023-07-23 17:33:00,SystemResetWarning,0833.7,5.01,000.00,030.4,026.8,000.0,038.0,030.7,24.5,0000.0,0010.22,0006.78,0006.31
2023-07-23 17:34:00,SystemResetWarning,0833.6,4.98,000.00,030.4,027.2,000.0,038.1,030.8,25.4,0000.0,0010.40,0006.97,0006.51
2023-07-23 17:35:00,SystemResetWarning,0833.6,4.99,000.00,030.4,027.0,000.0,038.1,030.8,28.6,0000.0,0010.41,0007.02,0006.58
2023-07-23 17:36:00,SystemResetWarning,0833.7,5.00,000.00,030.4,025.7,000.0,038.0,030.7,31.3,0000.0,0011.23,0007.06,0006.61
2023-07-23 17:37:00,SystemResetWarning,0833.7,5.00,000.00,030.3,025.3,000.0,037.9,030.6,29.7,0000.0,0011.64,0007.03,0006.60
2023-07-23 17:38:00,SystemResetWarning,0833.6,5.01,000.00,030.3,025.5,000.0,038.0,030.5,27.8,0000.0,0011.56,0007.01,0006.59
2023-07-23 17:39:00,SystemResetWarning,0833.7,5.01,000.00,030.2,025.9,000.0,038.0,030.5,25.0,0000.0,0011.61,0007.00,0006.57
2023-07-23 17:40:00,SystemResetWarning,0833.6,5.00,000.00,030.1,026.3,000.0,038.0,030.6,25.8,0000.0,0011.67,0007.02,0006.59
2023-07-23 17:41:00,SystemResetWarning,0833.7,5.00,000.00,030.1,026.7,000.0,038.1,030.7,25.7,0000.0,0011.31,0007.00,0006.59
2023-07-23 17:42:00,SystemResetWarning,0833.7,5.00,000.00,030.1,027.1,000.0,038.1,030.8,27.5,0000.0,0010.71,0006.87,0006.50
2023-07-23 17:43:00,SystemResetWarning,0833.7,5.00,000.00,030.1,026.9,000.0,038.1,030.8,31.4,0000.0,0010.67,0006.71,0006.34
2023-07-23 17:44:00,SystemResetWarning,0833.7,4.98,000.00,030.1,025.6,000.0,037.9,030.6,31.0,0000.0,0010.54,0006.51,0006.16
2023-07-23 17:45:00,SystemResetWarning,0833.7,5.02,000.00,030.0,025.1,000.0,037.8,030.5,27.4,0000.0,0010.33,0006.34,0005.99
2023-07-23 17:46:00,SystemResetWarning,0833.6,5.00,000.00,029.9,025.5,000.0,037.9,030.4,25.1,0000.0,0010.31,0006.15,0005.83
2023-07-23 17:47:00,SystemResetWarning,0833.6,5.00,000.00,029.8,025.8,000.0,037.9,030.4,28.6,0000.0,0010.70,0005.98,0005.69
2023-07-23 17:48:00,SystemResetWarning,0833.6,4.99,000.00,029.8,026.2,000.0,037.9,030.5,30.1,0000.0,0010.20,0005.83,0005.56
2023-07-23 17:49:00,SystemResetWarning,0833.6,5.00,000.00,029.8,026.7,000.0,037.9,030.6,30.8,0000.0,0010.33,0005.74,0005.44
2023-07-23 17:50:00,SystemResetWarning,0833.7,5.00,000.00,029.8,027.0,000.0,037.9,030.7,30.2,0000.0,0010.35,0005.72,0005.39
2023-07-23 17:51:00,SystemResetWarning,0833.7,5.01,000.00,029.8,027.3,000.0,037.9,030.8,28.8,0000.0,0010.80,0005.74,0005.42
2023-07-23 17:52:00,SystemResetWarning,0833.7,4.99,000.00,029.8,026.4,000.0,037.8,030.6,25.9,0000.0,0011.04,0005.75,0005.43
2023-07-23 17:53:00,SystemResetWarning,0833.6,4.99,000.00,029.7,025.2,000.0,037.7,030.4,27.4,0000.0,0011.04,0005.76,0005.42
2023-07-23 17:54:00,SystemResetWarning,0833.6,5.01,000.00,029.7,025.3,000.0,037.7,030.4,27.0,0000.0,0011.05,0005.80,0005.45
2023-07-23 17:55:00,SystemResetWarning,0833.6,5.00,000.00,029.6,025.7,000.0,037.7,030.3,30.3,0000.0,0010.97,0005.85,0005.50
2023-07-23 17:56:00,SystemResetWarning,0833.6,4.99,000.00,029.5,026.0,000.0,037.7,030.4,31.0,0000.0,0011.56,0005.92,0005.55
2023-07-23 17:57:00,SystemResetWarning,0833.6,5.00,000.00,029.5,026.5,000.0,037.7,030.5,29.9,0000.0,0011.93,0005.99,0005.60
2023-07-23 17:58:00,SystemResetWarning,0833.6,5.01,000.00,029.5,026.9,000.0,037.7,030.6,27.2,0000.0,0010.85,0006.06,0005.65
2023-07-23 17:59:00,SystemResetWarning,0833.6,5.01,000.00,029.5,027.2,000.0,037.7,030.7,23.8,0000.0,0010.58,0006.14,0005.70
